IBE05ZC LEMD-LEMG

Flight info

Callsign IBE05ZC
Flight time 0h 56m
Altitude 31000
Route VTB N10 CRISA N864 VULPE
Aircraft A20N/M-SDE2E3FGHIRWXY/LB1

Departure

Time 2026-05-06 14:25
Airport Adolfo Suárez Madrid–Barajas Airport (LEMD)

Arrival

Time 2026-05-06 15:22
Airport Málaga-Costa del Sol Airport (LEMG)
Time Latitude Longitude Altitude Speed Heading
2026-05-06 14:10 40.49043 -3.58991 1980 ft 0 kts 268°
2026-05-06 14:16 40.49044 -3.58969 1980 ft 2 kts 266°
2026-05-06 14:17 40.49044 -3.58947 1980 ft 2 kts 270°
2026-05-06 14:17 40.49043 -3.58926 1980 ft 2 kts 288°
2026-05-06 14:17 40.49034 -3.58908 1983 ft 2 kts 336°
2026-05-06 14:17 40.49018 -3.58903 1980 ft 2 kts 355°
2026-05-06 14:18 40.49005 -3.58902 1980 ft 1 kts 359°
2026-05-06 14:18 40.48999 -3.58902 1980 ft 1 kts
2026-05-06 14:18 40.48998 -3.58902 1980 ft 0 kts
2026-05-06 14:20 40.49012 -3.58902 1983 ft 4 kts
2026-05-06 14:21 40.49054 -3.58902 1980 ft 8 kts 358°
2026-05-06 14:21 40.49105 -3.58903 1980 ft 5 kts
2026-05-06 14:21 40.49155 -3.58904 1980 ft 9 kts 359°
2026-05-06 14:21 40.49218 -3.58901 1980 ft 8 kts 16°
2026-05-06 14:22 40.49241 -3.58836 1984 ft 9 kts 83°
2026-05-06 14:22 40.49241 -3.58742 1980 ft 12 kts 89°
2026-05-06 14:22 40.49242 -3.58619 1982 ft 15 kts 90°
2026-05-06 14:22 40.49242 -3.58476 1984 ft 17 kts 89°
2026-05-06 14:23 40.49244 -3.58305 1980 ft 20 kts 89°
2026-05-06 14:23 40.49244 -3.58116 1980 ft 21 kts 91°
2026-05-06 14:23 40.49244 -3.57916 1980 ft 22 kts 90°
2026-05-06 14:23 40.49246 -3.57719 1980 ft 18 kts 89°
2026-05-06 14:24 40.49272 -3.57566 1982 ft 17 kts 54°
2026-05-06 14:24 40.49343 -3.57474 1982 ft 15 kts 33°
2026-05-06 14:24 40.49388 -3.57464 1982 ft 1 kts
2026-05-06 14:24 40.49415 -3.57463 1980 ft 15 kts
2026-05-06 14:25 40.49774 -3.57465 1980 ft 86 kts 359°
2026-05-06 14:25 40.50572 -3.57471 1980 ft 141 kts
2026-05-06 14:25 40.51661 -3.57471 2359 ft 165 kts
2026-05-06 14:25 40.52850 -3.57435 3147 ft 175 kts
2026-05-06 14:26 40.54058 -3.57433 4124 ft 171 kts 359°
2026-05-06 14:26 40.55297 -3.57485 4528 ft 189 kts 353°
2026-05-06 14:26 40.56497 -3.58305 4852 ft 211 kts 308°
2026-05-06 14:26 40.57152 -3.60069 5394 ft 226 kts 290°
2026-05-06 14:27 40.58016 -3.61794 6314 ft 230 kts 315°
2026-05-06 14:27 40.59254 -3.63158 7320 ft 231 kts 323°
2026-05-06 14:27 40.60544 -3.64393 8310 ft 234 kts 323°
2026-05-06 14:27 40.61867 -3.65682 9317 ft 237 kts 322°
2026-05-06 14:28 40.63189 -3.67034 10281 ft 241 kts 321°
2026-05-06 14:28 40.64443 -3.68496 11117 ft 246 kts 307°
2026-05-06 14:28 40.65142 -3.70563 11959 ft 250 kts 277°
2026-05-06 14:28 40.64973 -3.72830 12809 ft 252 kts 247°
2026-05-06 14:29 40.64056 -3.74767 13614 ft 257 kts 229°
2026-05-06 14:29 40.62620 -3.76219 14222 ft 266 kts 201°
2026-05-06 14:29 40.60806 -3.76651 15003 ft 269 kts 177°
2026-05-06 14:29 40.58970 -3.76011 15764 ft 277 kts 151°
2026-05-06 14:30 40.57516 -3.74337 16485 ft 284 kts 128°
2026-05-06 14:30 40.56306 -3.72200 16909 ft 305 kts 127°
2026-05-06 14:30 40.54990 -3.69839 17122 ft 329 kts 127°
2026-05-06 14:30 40.53597 -3.67362 17352 ft 351 kts 127°
2026-05-06 14:31 40.52078 -3.64689 17568 ft 373 kts 127°
2026-05-06 14:31 40.50527 -3.61978 18048 ft 384 kts 128°
2026-05-06 14:31 40.48918 -3.59198 18712 ft 389 kts 131°
2026-05-06 14:31 40.46909 -3.56809 19313 ft 390 kts 149°
2026-05-06 14:32 40.44472 -3.55305 19952 ft 389 kts 166°
2026-05-06 14:32 40.41799 -3.54695 20619 ft 389 kts 177°
2026-05-06 14:32 40.39092 -3.54405 21303 ft 392 kts 179°
2026-05-06 14:32 40.36345 -3.54146 21980 ft 395 kts 179°
2026-05-06 14:33 40.33619 -3.53852 22632 ft 399 kts 179°
2026-05-06 14:33 40.30849 -3.53514 23286 ft 403 kts 179°
2026-05-06 14:33 40.28030 -3.53146 23855 ft 406 kts 178°
2026-05-06 14:33 40.25298 -3.52777 24400 ft 409 kts 178°
2026-05-06 14:34 40.22450 -3.52388 24942 ft 412 kts 178°
2026-05-06 14:34 40.19577 -3.51997 25469 ft 415 kts 178°
2026-05-06 14:34 40.16722 -3.51608 25975 ft 418 kts 178°
2026-05-06 14:34 40.13796 -3.51211 26481 ft 421 kts 178°
2026-05-06 14:35 40.10905 -3.50819 26975 ft 423 kts 178°
2026-05-06 14:35 40.07941 -3.50419 27445 ft 426 kts 178°
2026-05-06 14:35 40.04987 -3.50020 27927 ft 429 kts 179°
2026-05-06 14:35 40.02002 -3.49617 28377 ft 431 kts 179°
2026-05-06 14:36 39.99040 -3.49217 28809 ft 434 kts 179°
2026-05-06 14:36 39.95997 -3.48806 29237 ft 436 kts 179°
2026-05-06 14:36 39.93011 -3.48403 29656 ft 438 kts 179°
2026-05-06 14:36 39.89922 -3.47987 30070 ft 440 kts 179°
2026-05-06 14:37 39.86913 -3.47583 30442 ft 442 kts 179°
2026-05-06 14:37 39.83841 -3.47169 30801 ft 444 kts 179°
2026-05-06 14:37 39.80756 -3.46754 30918 ft 444 kts 179°
2026-05-06 14:37 39.77685 -3.46340 30932 ft 443 kts 179°
2026-05-06 14:38 39.71721 -3.46973 30929 ft 428 kts 202°
2026-05-06 14:38 39.69022 -3.48518 30929 ft 421 kts 214°
2026-05-06 14:38 39.66704 -3.50779 30924 ft 416 kts 226°
2026-05-06 14:39 39.64858 -3.53659 30926 ft 414 kts 238°
2026-05-06 14:39 39.63581 -3.57013 30928 ft 413 kts 251°
2026-05-06 14:39 39.62233 -3.64262 30928 ft 414 kts 250°
2026-05-06 14:40 39.61016 -3.67647 30925 ft 414 kts 239°
2026-05-06 14:40 39.59388 -3.70661 30921 ft 416 kts 232°
2026-05-06 14:40 39.55459 -3.76221 30925 ft 417 kts 227°
2026-05-06 14:41 39.51347 -3.81542 30927 ft 418 kts 227°
2026-05-06 14:41 39.47230 -3.86875 30931 ft 418 kts 227°
2026-05-06 14:42 39.43192 -3.92126 30932 ft 418 kts 227°
2026-05-06 14:42 39.39111 -3.97430 30933 ft 418 kts 227°
2026-05-06 14:43 39.35015 -4.02743 30930 ft 417 kts 227°
2026-05-06 14:43 39.30919 -4.08043 30929 ft 417 kts 227°
2026-05-06 14:44 39.26806 -4.13357 30928 ft 416 kts 227°
2026-05-06 14:45 39.20713 -4.21219 30919 ft 416 kts 226°
2026-05-06 14:45 39.16603 -4.26511 30916 ft 416 kts 226°
2026-05-06 14:46 39.12494 -4.31790 30913 ft 415 kts 226°
2026-05-06 14:46 39.08451 -4.36978 30909 ft 415 kts 226°
2026-05-06 14:47 39.04360 -4.42218 30905 ft 414 kts 226°
2026-05-06 14:47 39.00244 -4.47481 30913 ft 414 kts 226°
2026-05-06 14:48 38.96097 -4.52610 30910 ft 415 kts 220°
2026-05-06 14:48 38.90980 -4.56073 30910 ft 422 kts 200°
2026-05-06 14:49 38.85139 -4.57447 30904 ft 426 kts 193°
2026-05-06 14:49 38.79328 -4.58654 30922 ft 425 kts 193°
2026-05-06 14:50 38.73479 -4.59875 30905 ft 425 kts 194°
2026-05-06 14:50 38.67633 -4.61089 30915 ft 425 kts 194°
2026-05-06 14:51 38.61780 -4.62302 30912 ft 424 kts 194°
2026-05-06 14:51 38.55980 -4.63503 30912 ft 423 kts 194°
2026-05-06 14:52 38.50187 -4.64700 30910 ft 423 kts 194°
2026-05-06 14:52 38.44374 -4.65898 30908 ft 421 kts 194°
2026-05-06 14:53 38.38622 -4.67082 30907 ft 420 kts 194°
2026-05-06 14:53 38.32825 -4.68274 30905 ft 419 kts 194°
2026-05-06 14:54 38.27088 -4.69452 30900 ft 418 kts 194°
2026-05-06 14:54 38.21339 -4.70632 30895 ft 417 kts 194°
2026-05-06 14:55 38.15620 -4.71803 30889 ft 416 kts 194°
2026-05-06 14:55 38.09899 -4.72972 30887 ft 416 kts 194°
2026-05-06 14:56 38.04202 -4.74135 30878 ft 415 kts 194°
2026-05-06 14:56 37.98501 -4.75296 30875 ft 414 kts 194°
2026-05-06 14:57 37.92823 -4.76451 30661 ft 415 kts 194°
2026-05-06 14:57 37.89970 -4.77030 30412 ft 413 kts 194°
2026-05-06 14:57 37.87206 -4.77590 29829 ft 413 kts 194°
2026-05-06 14:57 37.84356 -4.78169 29108 ft 411 kts 194°
2026-05-06 14:58 37.81576 -4.78730 28591 ft 403 kts 194°
2026-05-06 14:58 37.79708 -4.79097 28187 ft 400 kts 192°
2026-05-06 14:58 37.76032 -4.79259 27371 ft 401 kts 182°
2026-05-06 14:58 37.74153 -4.79009 26956 ft 402 kts 176°
2026-05-06 14:59 37.71449 -4.78252 26344 ft 403 kts 169°
2026-05-06 14:59 37.68746 -4.77276 25717 ft 401 kts 169°
2026-05-06 14:59 37.66062 -4.76326 25093 ft 398 kts 169°
2026-05-06 14:59 37.63399 -4.75394 24466 ft 398 kts 169°
2026-05-06 15:00 37.60745 -4.74470 23792 ft 398 kts 169°
2026-05-06 15:00 37.58115 -4.73556 23127 ft 397 kts 169°
2026-05-06 15:00 37.55434 -4.72624 22514 ft 396 kts 169°
2026-05-06 15:00 37.52747 -4.71690 21919 ft 397 kts 168°
2026-05-06 15:01 37.50118 -4.70777 21272 ft 397 kts 168°
2026-05-06 15:01 37.47444 -4.69847 20652 ft 394 kts 168°
2026-05-06 15:01 37.44878 -4.68952 20417 ft 375 kts 168°
2026-05-06 15:01 37.42419 -4.68091 20213 ft 354 kts 168°
2026-05-06 15:02 37.40139 -4.67295 19888 ft 340 kts 168°
2026-05-06 15:02 37.37895 -4.66289 19499 ft 334 kts 159°
2026-05-06 15:02 37.35833 -4.64892 19294 ft 337 kts 153°
2026-05-06 15:02 37.33832 -4.63406 18964 ft 339 kts 153°
2026-05-06 15:03 37.31847 -4.61947 18550 ft 338 kts 153°
2026-05-06 15:03 37.29770 -4.60424 18166 ft 334 kts 153°
2026-05-06 15:03 37.27797 -4.59061 17965 ft 314 kts 160°
2026-05-06 15:03 37.25762 -4.58277 17507 ft 301 kts 174°
2026-05-06 15:04 37.23748 -4.58127 16939 ft 295 kts 184°
2026-05-06 15:04 37.21694 -4.58151 16572 ft 293 kts 183°
2026-05-06 15:04 37.19657 -4.58143 16206 ft 292 kts 182°
2026-05-06 15:04 37.17653 -4.58126 15851 ft 289 kts 182°
2026-05-06 15:05 37.15644 -4.58106 15491 ft 287 kts 182°
2026-05-06 15:05 37.13650 -4.58087 15127 ft 285 kts 182°
2026-05-06 15:05 37.11714 -4.58071 14799 ft 283 kts 182°
2026-05-06 15:05 37.09732 -4.58094 14429 ft 280 kts 189°
2026-05-06 15:06 37.07917 -4.58885 14071 ft 275 kts 215°
2026-05-06 15:06 37.06608 -4.60614 13719 ft 274 kts 242°
2026-05-06 15:06 37.06086 -4.62867 13326 ft 275 kts 268°
2026-05-06 15:06 37.06444 -4.65176 12938 ft 276 kts 294°
2026-05-06 15:07 37.07657 -4.67037 12771 ft 273 kts 323°
2026-05-06 15:07 37.09426 -4.67960 12784 ft 287 kts 350°
2026-05-06 15:07 37.11428 -4.68027 12635 ft 288 kts
2026-05-06 15:07 37.13437 -4.67960 12369 ft 284 kts
2026-05-06 15:08 37.15398 -4.67893 11974 ft 284 kts
2026-05-06 15:08 37.17376 -4.67827 11590 ft 285 kts
2026-05-06 15:08 37.19347 -4.67847 11201 ft 285 kts 349°
2026-05-06 15:08 37.21304 -4.68812 10961 ft 325 kts 324°
2026-05-06 15:09 37.22961 -4.70833 10641 ft 342 kts 304°
2026-05-06 15:09 37.23939 -4.73558 10309 ft 343 kts 281°
2026-05-06 15:09 37.24017 -4.76486 10194 ft 327 kts 259°
2026-05-06 15:09 37.23247 -4.79061 10003 ft 306 kts 236°
2026-05-06 15:10 37.21821 -4.80886 9782 ft 290 kts 213°
2026-05-06 15:10 37.19974 -4.81767 9362 ft 283 kts 187°
2026-05-06 15:10 37.18049 -4.81491 9220 ft 282 kts 161°
2026-05-06 15:10 37.16215 -4.80543 9074 ft 287 kts 160°
2026-05-06 15:11 37.14314 -4.79839 8949 ft 285 kts 170°
2026-05-06 15:11 37.12362 -4.79560 8843 ft 278 kts 179°
2026-05-06 15:11 37.10494 -4.79592 8712 ft 263 kts 184°
2026-05-06 15:11 37.08716 -4.79768 8546 ft 247 kts 186°
2026-05-06 15:12 37.07038 -4.79986 8312 ft 238 kts 187°
2026-05-06 15:12 37.05412 -4.80054 8142 ft 233 kts 180°
2026-05-06 15:12 37.03778 -4.80026 8031 ft 238 kts 181°
2026-05-06 15:12 37.02130 -4.80005 7861 ft 238 kts 181°
2026-05-06 15:13 37.00467 -4.79990 7581 ft 238 kts 181°
2026-05-06 15:13 36.98807 -4.79988 7277 ft 239 kts 181°
2026-05-06 15:13 36.97143 -4.79984 6986 ft 238 kts 181°
2026-05-06 15:13 36.95489 -4.79972 6682 ft 236 kts 181°
2026-05-06 15:14 36.93870 -4.79944 6400 ft 233 kts 177°
2026-05-06 15:14 36.92285 -4.79580 6099 ft 231 kts 163°
2026-05-06 15:14 36.90777 -4.78895 5820 ft 229 kts 161°
2026-05-06 15:14 36.89276 -4.78226 5547 ft 228 kts 162°
2026-05-06 15:15 36.87805 -4.77583 5286 ft 224 kts 161°
2026-05-06 15:15 36.86375 -4.76864 5005 ft 224 kts 152°
2026-05-06 15:15 36.85008 -4.75922 4747 ft 221 kts 152°
2026-05-06 15:15 36.83663 -4.75007 4542 ft 222 kts 152°
2026-05-06 15:16 36.82295 -4.74089 4503 ft 217 kts 152°
2026-05-06 15:16 36.81015 -4.73233 4437 ft 206 kts 152°
2026-05-06 15:16 36.79772 -4.72403 4226 ft 198 kts 152°
2026-05-06 15:16 36.78567 -4.71593 3908 ft 197 kts 152°
2026-05-06 15:17 36.77450 -4.70633 3574 ft 195 kts 130°
2026-05-06 15:17 36.76769 -4.69202 3280 ft 195 kts 115°
2026-05-06 15:17 36.76203 -4.67741 3168 ft 176 kts 116°
2026-05-06 15:17 36.75649 -4.66391 2837 ft 169 kts 117°
2026-05-06 15:18 36.75128 -4.65151 2603 ft 158 kts 118°
2026-05-06 15:18 36.74638 -4.63977 2407 ft 147 kts 118°
2026-05-06 15:18 36.74175 -4.62873 2201 ft 140 kts 118°
2026-05-06 15:18 36.73716 -4.61776 2010 ft 143 kts 117°
2026-05-06 15:19 36.73266 -4.60705 1825 ft 139 kts 119°
2026-05-06 15:19 36.72818 -4.59628 1634 ft 138 kts 118°
2026-05-06 15:19 36.72370 -4.58572 1453 ft 139 kts 119°
2026-05-06 15:19 36.71929 -4.57521 1264 ft 135 kts 118°
2026-05-06 15:20 36.71496 -4.56496 1086 ft 135 kts 117°
2026-05-06 15:20 36.71067 -4.55456 898 ft 134 kts 117°
2026-05-06 15:20 36.70634 -4.54432 724 ft 133 kts 118°
2026-05-06 15:20 36.70212 -4.53429 564 ft 132 kts 118°
2026-05-06 15:21 36.69784 -4.52403 377 ft 136 kts 119°
2026-05-06 15:21 36.69354 -4.51384 205 ft 130 kts 119°
2026-05-06 15:21 36.68930 -4.50370 52 ft 132 kts 120°
2026-05-06 15:21 36.68581 -4.49535 45 ft 79 kts 117°
2026-05-06 15:22 36.68417 -4.49145 45 ft 30 kts 118°
2026-05-06 15:22 36.68313 -4.48974 43 ft 16 kts 139°
2026-05-06 15:22 36.68238 -4.48901 41 ft 16 kts 144°
2026-05-06 15:22 36.68156 -4.48840 39 ft 8 kts 154°
2026-05-06 15:23 36.68131 -4.48852 39 ft 6 kts 229°
2026-05-06 15:23 36.68138 -4.48920 40 ft 11 kts 298°
2026-05-06 15:23 36.68187 -4.49038 38 ft 20 kts 296°
2026-05-06 15:23 36.68262 -4.49212 40 ft 26 kts 297°
2026-05-06 15:24 36.68239 -4.49368 40 ft 18 kts 218°
2026-05-06 15:24 36.68211 -4.49396 41 ft 5 kts 219°
2026-05-06 15:24 36.68164 -4.49446 42 ft 13 kts 224°
2026-05-06 15:24 36.68078 -4.49542 42 ft 19 kts 220°
2026-05-06 15:25 36.68002 -4.49547 41 ft 7 kts 124°
2026-05-06 15:25 36.67960 -4.49480 41 ft 13 kts 131°
2026-05-06 15:25 36.67912 -4.49428 42 ft 6 kts 174°
2026-05-06 15:25 36.67881 -4.49445 41 ft 3 kts 213°
2026-05-06 15:26 36.67862 -4.49460 40 ft 0 kts 213°